Simultaneous Nadir Overpasses (SNOs) Predictions

Prediction of SNOs between METOP-A and TERRA Satellite Orbit:

Table of predicted SNOs for the next 14.0 days since TLE Epoch: 2/5/2012
Index Date (METOP-A) Time (METOP-A) METOP-A Lat,Lon Date (TERRA) Time (TERRA) TERRA Lat,Lon Distance(km) Time Diff (sec)
1 02/06/2012 16:39:47 -81.29, 157.05 02/06/2012 16:39:54 -81.29, 156.88 2.83 7
2 02/06/2012 17:30:27 81.29, -35.40 02/06/2012 17:29:20 81.30, -35.35 1.05 67
3 02/09/2012 11:23:34 81.27, 54.97 02/09/2012 11:24:48 81.24, 54.85 3.44 74
4 02/09/2012 12:14:13 -81.28,-136.84 02/09/2012 12:14:13 -81.28,-136.80 0.77 0
5 02/09/2012 13:04:52 81.29, 31.06 02/09/2012 13:03:39 81.29, 30.94 1.96 73
6 02/12/2012 06:57:58 81.28, 121.82 02/12/2012 06:59:05 81.28, 121.84 0.26 67
7 02/12/2012 07:48:39 -81.28, -70.73 02/12/2012 07:48:32 -81.27, -70.54 3.14 7
8 02/15/2012 02:32:23 81.28,-171.71 02/15/2012 02:33:23 81.28,-171.62 1.70 60
9 02/15/2012 03:23:02 -81.29, -3.83 02/15/2012 03:22:49 -81.28, -3.98 2.48 13
10 02/17/2012 22:06:47 81.28,-105.23 02/17/2012 22:07:40 81.29,-105.13 1.91 53




NCC Satellite Simultaneous Nadir Overpasses (SNOs) Prediction Service
